User: anonymous   Login
Location: Fort Hays State University
(38.8712°N, 99.3432°W)
Time: 10:30:02
(UTC-05:00)
Language:

ALOS - Orbit

View from above orbital plane
View from above orbital plane
View from above satellite
View from above satellite

Ground track
Ground track

The orbit data is extracted from the following two-line orbital elements,

1 28931U 06002A   15089.56338163  .00001202  00000-0  24993-3 0  9994
2 28931 097.9433 142.0787 0001601 059.0531 301.0828 14.61753837489154
Epoch (UTC): 30 March 2015 13:31:16
Eccentricity: 0.0001601
inclination: 97.9433°
perigee height: 686 km
apogee height: 688 km
right ascension of ascending node: 142.0787°
argument of perigee: 59.0531°
revolutions per day: 14.61753837
mean anomaly at epoch: 301.0828°
orbit number at epoch: 48915

The dashed part of the orbit path shows where the satellite is in the earth's shadow,  

DLR